Torna al catalogo

ATLAS 5 CENTAUR R/B

AttivoHEO
NORAD 41623·ROCKET BODY·🇺🇸 United States

Lanciato Jun 24, 2016 da Cape Canaveral Space Force Station

Loading…

Prossimi Passaggi (prossime 24 ore)

TLE

AggiornatoSource: Space-Track

Epoca: Sep 6, 2026, 22:08 UTC

1 41623U 16041B   26249.92290686 -.00000298  00000-0  00000-0 0  9993
2 41623  19.3011 355.5422 6091347 354.5164   0.9925  2.09534502 78119

Traccia ATLAS 5 CENTAUR R/B in tempo reale con AllMySat

Download on the App Store